H1 CPF 2 NER 2023 5 13 9 133 01 glonass143 H2 2007501 9143 46805 2023 5 13 0 0 0 2023 5 16 23 45 0 900 1 1 0 0 0 1 H9 10 0 60077 0.00000 0 23692267.855 -4105041.294 -8529210.617 10 0 60077 900.00000 0 24551654.945 -4277671.487 -5470303.591 10 0 60077 1800.00000 0 25015309.131 -4472515.389 -2305207.054 10 0 60077 2700.00000 0 25077007.753 -4634210.949 904631.830 10 0 60077 3600.00000 0 24743849.772 -4707955.875 4096916.773 10 0 60077 4500.00000 0 24035901.900 -4642063.783 7209710.258 10 0 60077 5400.00000 0 22985321.281 -4390391.723 10182633.006 10 0 60077 6300.00000 0 21634992.146 -3914536.202 12958031.755 10 0 60077 7200.00000 0 20036733.994 -3185704.759 15482092.849 10 0 60077 8100.00000 0 18249156.607 -2186183.820 17705880.405 10 0 60077 9000.00000 0 16335251.665 -910340.521 19586279.447 10 0 60077 9900.00000 0 14359821.432 634884.280 21086826.337 10 0 60077 10800.00000 0 12386851.447 2430013.451 22178411.121 10 0 60077 11700.00000 0 10476936.184 4443601.095 22839838.838 10 0 60077 12600.00000 0 8684864.281 6633307.825 23058239.452 10 0 60077 13500.00000 0 7057463.123 8947440.464 22829318.794 10 0 60077 14400.00000 0 5631791.765 11326893.693 22157445.721 10 0 60077 15300.00000 0 4433756.763 13707414.327 21055573.546 10 0 60077 16200.00000 0 3477208.018 16022095.485 19544996.745 10 0 60077 17100.00000 0 2763551.836 18203998.060 17654946.856 10 0 60077 18000.00000 0 2281897.033 20188791.207 15422034.475 10 0 60077 18900.00000 0 2009727.669 21917302.376 12889547.197 10 0 60077 19800.00000 0 1914073.935 23337870.671 10106616.161 10 0 60077 20700.00000 0 1953131.724 24408405.068 7127266.668 10 0 60077 21600.00000 0 2078262.309 25098060.952 4009370.825 10 0 60077 22500.00000 0 2236287.291 25388464.196 813522.382 10 0 60077 23400.00000 0 2371981.181 25274430.761 -2398144.149 10 0 60077 24300.00000 0 2430655.318 24764151.047 -5563166.681 10 0 60077 25200.00000 0 2360722.720 23878830.779 -8619976.752 10 0 60077 26100.00000 0 2116134.070 22651803.306 -11509104.101 10 0 60077 27000.00000 0 1658580.445 21127150.582 -14174340.365 10 0 60077 27900.00000 0 959368.237 19357890.975 -16563838.465 10 0 60077 28800.00000 0 885.748 17403810.364 -18631125.658 10 0 60077 29700.00000 0 -1222401.748 15329027.967 -20336010.182 10 0 60077 30600.00000 0 -2703471.531 13199399.355 -21645363.740 10 0 60077 31500.00000 0 -4422798.818 11079865.749 -22533764.657 10 0 60077 32400.00000 0 -6348946.571 9031860.614 -22983989.541 10 0 60077 33300.00000 0 -8439665.802 7110881.838 -22987344.282 10 0 60077 34200.00000 0 -10643460.930 5364330.500 -22543828.431 10 0 60077 35100.00000 0 -12901555.332 3829705.773 -21662130.214 10 0 60077 36000.00000 0 -15150175.409 2533230.309 -20359452.669 10 0 60077 36900.00000 0 -17323058.221 1488962.303 -18661174.556 10 0 60077 37800.00000 0 -19354078.338 698429.886 -16600352.839 10 0 60077 38700.00000 0 -21179884.581 150801.589 -14217076.484 10 0 60077 39600.00000 0 -22742436.807 -176415.906 -11557684.213 10 0 60077 40500.00000 0 -23991337.017 -316183.577 -8673861.434 10 0 60077 41400.00000 0 -24885857.790 -310291.192 -5621634.025 10 0 60077 42300.00000 0 -25396583.415 -207344.028 -2460278.617 10 0 60077 43200.00000 0 -25506595.405 -60461.207 748829.290 10 0 60077 44100.00000 0 -25212153.325 75216.269 3943406.794 10 0 60077 45000.00000 0 -24522842.822 145101.859 7061471.294 10 0 60077 45900.00000 0 -23461185.197 97714.858 10042540.899 10 0 60077 46800.00000 0 -22061725.326 -112901.319 12828804.237 10 0 60077 47700.00000 0 -20369636.378 -524996.301 15366237.121 10 0 60077 48600.00000 0 -18438899.919 -1167257.704 17605644.781 10 0 60077 49500.00000 0 -16330137.397 -2057362.357 19503609.967 10 0 60077 50400.00000 0 -14108183.296 -3200995.215 21023329.157 10 0 60077 51300.00000 0 -11839500.719 -4591377.873 22135321.394 10 0 60077 52200.00000 0 -9589546.325 -6209327.398 22817996.677 10 0 60077 53100.00000 0 -7420193.568 -8023844.192 23058073.443 10 0 60077 54000.00000 0 -5387320.472 -9993205.718 22850837.393 10 0 60077 54900.00000 0 -3538661.343 -12066521.968 22200236.715 10 0 60077 55800.00000 0 -1912010.932 -14185689.339 21118811.637 10 0 60077 56700.00000 0 -533854.977 -16287662.966 19627459.135 10 0 60077 57600.00000 0 581516.489 -18306954.068 17755036.566 10 0 60077 58500.00000 0 1432376.601 -20178249.174 15537811.006 10 0 60077 59400.00000 0 2029395.007 -21839042.556 13018763.948 10 0 60077 60300.00000 0 2394944.459 -23232172.200 10246763.925 10 0 60077 61200.00000 0 2561910.129 -24308153.100 7275622.380 10 0 60077 62100.00000 0 2572052.168 -25027209.743 4163050.606 10 0 60077 63000.00000 0 2473991.033 -25360921.880 969537.839 10 0 60077 63900.00000 0 2320901.302 -25293413.661 -2242827.490 10 0 60077 64800.00000 0 2168012.289 -24822035.333 -5411569.994 10 0 60077 65700.00000 0 2070022.207 -23957508.055 -8475048.787 10 0 60077 66600.00000 0 2078536.442 -22723525.138 -11373663.505 10 0 60077 67500.00000 0 2239639.635 -21155826.063 -14051020.603 10 0 60077 68400.00000 0 2591705.541 -19300782.009 -16455036.433 10 0 60077 69300.00000 0 3163538.524 -17213552.313 -18538955.002 10 0 60077 70200.00000 0 3972926.348 -14955889.353 -20262260.227 10 0 60077 71100.00000 0 5025666.402 -12593684.038 -21591464.812 10 0 60077 72000.00000 0 6315107.290 -10194354.827 -22500760.470 10 0 60077 72900.00000 0 7822225.911 -7824189.498 -22972517.160 10 0 60077 73800.00000 0 9516237.467 -5545750.519 -22997622.041 10 0 60077 74700.00000 0 11355713.419 -3415451.931 -22575652.008 10 0 60077 75600.00000 0 13290161.010 -1481408.167 -21714876.924 10 0 60077 76500.00000 0 15261998.671 218356.456 -20432093.858 10 0 60077 77400.00000 0 17208844.973 1657264.036 -18752295.846 10 0 60077 78300.00000 0 19066025.657 2821050.009 -16708181.793 10 0 60077 79200.00000 0 20769194.119 3708106.064 -14339517.148 10 0 60077 80100.00000 0 22256955.871 4329286.384 -11692357.847 10 0 60077 81000.00000 0 23473387.302 4707187.072 -8818152.683 10 0 60077 81900.00000 0 24370343.472 4874930.707 -5772741.579 10 0 60077 82800.00000 0 24909458.376 4874508.671 -2615269.428 10 0 60077 83700.00000 0 25063754.110 4754752.437 592963.247 10 0 60077 84600.00000 0 24818791.593 4569020.480 3789690.349 10 0 60077 85500.00000 0 24173314.884 4372699.356 6912887.617 10 0 60078 0.00000 0 23139362.561 4220625.136 9901973.578 10 0 60078 900.00000 0 21741840.951 4164534.428 12698982.356 10 0 60078 1800.00000 0 20017578.702 4250653.069 15249681.732 10 0 60078 2700.00000 0 18013900.405 4517524.111 17504620.476 10 0 60078 3600.00000 0 15786779.954 4994167.044 19420081.101 10 0 60078 4500.00000 0 13398649.852 5698645.897 20958921.839 10 0 60078 5400.00000 0 10915957.270 6637106.809 22091291.937 10 0 60078 6300.00000 0 8406567.806 7803326.131 22795207.113 10 0 60078 7200.00000 0 5937124.028 9178788.822 23056974.561 10 0 60078 8100.00000 0 3570467.543 10733294.996 22871459.629 10 0 60078 9000.00000 0 1363230.636 12426070.551 22242189.102 10 0 60078 9900.00000 0 -636303.435 14207336.890 21181288.870 10 0 60078 10800.00000 0 -2389983.505 16020275.586 19709256.660 10 0 60078 11700.00000 0 -3871143.529 17803307.283 17854573.464 10 0 60078 12600.00000 0 -5065469.855 19492590.672 15653160.280 10 0 60078 13500.00000 0 -5971347.095 21024637.870 13147689.669 10 0 60078 14400.00000 0 -6599668.612 22338937.158 10386764.542 10 0 60078 15300.00000 0 -6973119.958 23380473.192 7423979.352 10 0 60078 16200.00000 0 -7124965.835 24102038.612 4316881.422 10 0 60078 17100.00000 0 -7097392.139 24466239.314 1125852.347 10 0 60078 18000.00000 0 -6939473.657 24447108.167 -2087068.568 10 0 60078 18900.00000 0 -6704854.010 24031258.288 -5259395.533 10 0 60078 19800.00000 0 -6449236.880 23218526.321 -8329417.917 10 0 60078 20700.00000 0 -6227795.711 22022077.707 -11237407.663 10 0 60078 21600.00000 0 -6092612.647 20467968.771 -13926788.136 10 0 60078 22500.00000 0 -6090256.226 18594183.462 -16345240.860 10 0 60078 23400.00000 0 -6259601.424 16449184.884 -18445727.970 10 0 60078 24300.00000 0 -6629985.216 14090042.201 -20187410.087 10 0 60078 25200.00000 0 -7219776.441 11580211.341 -21536441.605 10 0 60078 26100.00000 0 -8035421.072 8987062.366 -22466627.989 10 0 60078 27000.00000 0 -9071003.745 6379256.778 -22959932.607 10 0 60078 27900.00000 0 -10308344.519 3824084.023 -23006823.610 10 0 60078 28800.00000 0 -11717627.197 1384867.943 -22606454.628 10 0 60078 29700.00000 0 -13258533.184 -881449.341 -21766676.193 10 0 60078 30600.00000 0 -14881833.559 -2926446.320 -20503878.078 10 0 60078 31500.00000 0 -16531372.822 -4711995.671 -18842665.907 10 0 60078 32400.00000 0 -18146361.338 -6211599.932 -16815378.532 10 0 60078 33300.00000 0 -19663880.502 -7411235.053 -14461455.636 10 0 60078 34200.00000 0 -21021495.670 -8309668.187 -11826667.956 10 0 60078 35100.00000 0 -22159867.367 -8918238.234 -8962225.123 10 0 60078 36000.00000 0 -23025251.275 -9260110.053 -5923778.540 10 0 60078 36900.00000 0 -23571782.100 -9369035.313 -2770338.810 10 0 60078 37800.00000 0 -23763445.467 -9287673.663 436871.069 10 0 60078 38700.00000 0 -23575655.078 -9065546.207 3635604.322 10 0 60078 39600.00000 0 -22996369.009 -8756708.711 6763797.482 10 0 60078 40500.00000 0 -22026698.334 -8417243.509 9760772.414 10 0 60078 41400.00000 0 -20680982.539 -8102676.499 12568409.974 10 0 60078 42300.00000 0 -18986328.533 -7865428.551 15132272.622 10 0 60078 43200.00000 0 -16981632.278 -7752408.964 17402654.605 10 0 60078 44100.00000 0 -14716123.610 -7802852.416 19335539.866 10 0 60078 45000.00000 0 -12247494.461 -8046490.543 20893449.697 10 0 60078 45900.00000 0 -9639687.744 -8502135.118 22046164.469 10 0 60078 46800.00000 0 -6960438.023 -9176732.604 22771306.115 10 0 60078 47700.00000 0 -4278665.168 -10064930.250 23054770.667 10 0 60078 48600.00000 0 -1661828.107 -11149172.606 22891002.813 10 0 60078 49500.00000 0 826652.661 -12400325.429 22283107.280 10 0 60078 50400.00000 0 3129797.872 -13778801.969 21242794.654 10 0 60078 51300.00000 0 5199198.903 -15236145.770 19790162.184 10 0 60078 52200.00000 0 6996786.164 -16717005.009 17953313.033 10 0 60078 53100.00000 0 8496163.577 -18161416.793 15767820.428 10 0 60078 54000.00000 0 9683454.129 -19507306.595 13276046.089 10 0 60078 54900.00000 0 10557621.639 -20693098.596 10526325.180 10 0 60078 55800.00000 0 11130255.679 -21660327.477 7572032.858 10 0 60078 56700.00000 0 11424829.072 -22356141.712 4470549.996 10 0 60078 57600.00000 0 11475459.646 -22735592.476 1282147.965 10 0 60078 58500.00000 0 11325228.959 -22763610.892 -1931185.693 10 0 60078 59400.00000 0 11024129.607 -22416589.268 -5106957.422 10 0 60078 60300.00000 0 10626728.673 -21683498.496 -8183389.440 10 0 60078 61200.00000 0 10189647.053 -20566493.365 -11100628.509 10 0 60078 62100.00000 0 9768962.324 -19080979.246 -13801917.282 10 0 60078 63000.00000 0 9417646.063 -17255136.425 -16234704.688 10 0 60078 63900.00000 0 9183145.028 -15128921.397 -18351673.014 10 0 60078 64800.00000 0 9105209.338 -12752586.547 -20111661.341 10 0 60078 65700.00000 0 9214060.153 -10184779.882 -21480467.194 10 0 60078 66600.00000 0 9528974.777 -7490304.138 -22431510.864 10 0 60078 67500.00000 0 10057349.253 -4737628.652 -22946349.786 10 0 60078 68400.00000 0 10794278.229 -1996257.574 -23015033.361 10 0 60078 69300.00000 0 11722669.915 665936.247 -22636291.798 10 0 60078 70200.00000 0 12813891.402 3185301.173 -21817555.763 10 0 60078 71100.00000 0 14028917.235 5504813.412 -20574806.850 10 0 60078 72000.00000 0 15319932.995 7576201.087 -18932262.065 10 0 60078 72900.00000 0 16632326.505 9361698.425 -16921898.682 10 0 60078 73800.00000 0 17906982.995 10835358.284 -14582828.792 10 0 60078 74700.00000 0 19082787.752 11983869.779 -11960535.789 10 0 60078 75600.00000 0 20099231.056 12806848.439 -9105987.721 10 0 60078 76500.00000 0 20899005.800 13316588.467 -6074644.757 10 0 60078 77400.00000 0 21430488.583 13537289.199 -2925380.277 10 0 60078 78300.00000 0 21649999.758 13503789.811 280663.321 10 0 60078 79200.00000 0 21523747.351 13259866.929 3481261.716 10 0 60078 80100.00000 0 21029373.034 12856168.115 6614315.333 10 0 60078 81000.00000 0 20157035.094 12347869.261 9619052.082 10 0 60078 81900.00000 0 18909982.762 11792155.339 12437202.833 10 0 60078 82800.00000 0 17304597.521 11245631.111 15014126.932 10 0 60078 83700.00000 0 15369899.340 10761771.094 17299866.300 10 0 60078 84600.00000 0 13146537.945 10388516.178 19250108.177 10 0 60078 85500.00000 0 10685310.560 10166117.923 20827038.456 10 0 60079 0.00000 0 8045267.320 10125321.003 22000069.728 10 0 60079 900.00000 0 5291480.687 10285960.096 22746431.156 10 0 60079 1800.00000 0 2492574.022 10656030.216 23051607.869 10 0 60079 2700.00000 0 -281894.026 11231269.640 22909623.823 10 0 60079 3600.00000 0 -2964078.583 11995273.594 22323161.120 10 0 60079 4500.00000 0 -5490423.738 12920134.615 21303513.970 10 0 60079 5400.00000 0 -7804057.893 13967583.684 19870377.553 10 0 60079 6300.00000 0 -9856910.762 15090585.381 18051475.132 10 0 60079 7200.00000 0 -11611464.746 16235321.116 15882029.680 10 0 60079 8100.00000 0 -13042068.347 17343478.109 13404089.260 10 0 60079 9000.00000 0 -14135757.255 18354748.581 10665718.252 10 0 60079 9900.00000 0 -14892549.112 19209434.344 7720069.349 10 0 60079 10800.00000 0 -15325199.898 19851047.066 4624353.775 10 0 60079 11700.00000 0 -15458432.482 20228794.211 1438729.504 10 0 60079 12600.00000 0 -15327670.235 20299844.986 -1774870.770 10 0 60079 13500.00000 0 -14977329.602 20031279.660 -4953948.681 10 0 60079 14400.00000 0 -14458744.403 19401638.734 -8036662.081 10 0 60079 15300.00000 0 -13827810.352 18402005.315 -10963035.096 10 0 60079 16200.00000 0 -13142450.316 17036573.783 -13676131.955 10 0 60079 17100.00000 0 -12460008.370 15322679.613 -16123170.930 10 0 60079 18000.00000 0 -11834683.778 13290288.132 -18256556.042 10 0 60079 18900.00000 0 -11315114.071 10980962.857 -20034806.022 10 0 60079 19800.00000 0 -10942209.954 8446356.025 -21423362.315 10 0 60079 20700.00000 0 -10747333.812 5746284.054 -22395260.435 10 0 60079 21600.00000 0 -10750898.884 2946467.941 -22931651.896 10 0 60079 22500.00000 0 -10961448.129 116032.522 -23022166.971 10 0 60079 23400.00000 0 -11375251.472 -2675131.557 -22665111.688 10 0 60079 24300.00000 0 -11976438.166 -5359033.791 -21867495.708 10 0 60079 25200.00000 0 -12737658.382 -7872167.401 -20644890.926 10 0 60079 26100.00000 0 -13621245.933 -10157903.750 -19021123.867 10 0 60079 27000.00000 0 -14580832.882 -12168598.941 -17027808.060 10 0 60079 27900.00000 0 -15563347.862 -13867325.944 -14703725.597 10 0 60079 28800.00000 0 -16511313.751 -15229161.342 -12094069.976 10 0 60079 29700.00000 0 -17365347.750 -16241974.384 -9249565.000 10 0 60079 30600.00000 0 -18066758.424 -16906686.977 -6225476.953 10 0 60079 31500.00000 0 -18560130.123 -17236995.227 -3080539.376 10 0 60079 32400.00000 0 -18795785.680 -17258565.756 124188.502 10 0 60079 33300.00000 0 -18732023.554 -17007742.083 3326507.292 10 0 60079 34200.00000 0 -18337034.941 -16529816.713 6464283.704 10 0 60079 35100.00000 0 -17590420.009 -15876942.760 9476653.998 10 0 60079 36000.00000 0 -16484239.268 -15105773.858 12305201.253 10 0 60079 36900.00000 0 -15023555.504 -14274932.233 14895083.752 10 0 60079 37800.00000 0 -13226443.128 -13442411.737 17196092.929 10 0 60079 38700.00000 0 -11123463.880 -12663025.141 19163620.903 10 0 60079 39600.00000 0 -8756630.036 -11986002.781 20759519.437 10 0 60079 40500.00000 0 -6177897.369 -11452843.133 21952834.423 10 0 60079 41400.00000 0 -3447249.443 -11095505.199 22720402.373 10 0 60079 42300.00000 0 -630451.646 -10935018.256 23047297.928 10 0 60079 43200.00000 0 2203433.166 -10980567.123 22927124.124 10 0 60079 44100.00000 0 4984665.720 -11229091.377 22362139.928 10 0 60079 45000.00000 0 7645480.656 -11665415.601 21363222.362 10 0 60079 45900.00000 0 10122657.399 -12262905.760 19949663.472 10 0 60079 46800.00000 0 12359905.891 -12984624.833 18148805.302 10 0 60079 47700.00000 0 14309968.797 -13784939.977 15995518.995 10 0 60079 48600.00000 0 15936353.298 -14611514.421 13531537.123 10 0 60079 49500.00000 0 17214620.641 -15407600.899 10804651.172 10 0 60079 50400.00000 0 18133179.795 -16114540.389 7867788.978 10 0 60079 51300.00000 0 18693552.133 -16674360.843 4777989.469 10 0 60079 52200.00000 0 18910096.222 -17032365.942 1595294.368 10 0 60079 53100.00000 0 18809204.467 -17139603.854 -1618421.471 10 0 60079 54000.00000 0 18428005.824 -16955110.730 -4800657.896 10 0 60079 54900.00000 0 17812629.739 -16447832.918 -7889511.362 10 0 60079 55800.00000 0 17016105.263 -15598145.339 -10824886.198 10 0 60079 56700.00000 0 16095984.800 -14398900.534 -13549670.831 10 0 60079 57600.00000 0 15111793.707 -12855962.775 -16010855.261 10 0 60079 58500.00000 0 14122414.262 -10988203.534 -18160567.319 10 0 60079 59400.00000 0 13183515.174 -8826957.414 -19957007.142 10 0 60079 60300.00000 0 12345135.645 -6414960.477 -21365261.492 10 0 60079 61200.00000 0 11649526.210 -3804814.732 -22357982.095 10 0 60079 62100.00000 0 11129337.419 -1057042.409 -22915915.115 10 0 60079 63000.00000 0 10806232.503 1762189.293 -23028271.833 10 0 60079 63900.00000 0 10689982.075 4583578.535 -22692933.810 10 0 60079 64800.00000 0 10778078.423 7337330.212 -21916489.003 10 0 60079 65700.00000 0 11055885.028 9955818.974 -20714098.537 10 0 60079 66600.00000 0 11497314.352 12376163.714 -19109197.031 10 0 60079 67500.00000 0 12066004.711 14542607.140 -17133032.529 10 0 60079 68400.00000 0 12716946.076 16408602.265 -14824055.079 10 0 60079 69300.00000 0 13398485.797 17938519.880 -12227165.945 10 0 60079 70200.00000 0 14054629.208 19108906.926 -9392842.104 10 0 60079 71100.00000 0 14627537.742 19909244.559 -6376153.121 10 0 60079 72000.00000 0 15060118.845 20342175.523 -3235689.674 10 0 60079 72900.00000 0 15298598.136 20423192.745 -32424.726 10 0 60079 73800.00000 0 15294965.025 20179803.530 3171470.401 10 0 60079 74700.00000 0 15009188.349 19650205.750 6313831.770 10 0 60079 75600.00000 0 14411108.510 18881532.897 9333706.891 10 0 60079 76500.00000 0 13481926.004 17927742.523 12172533.726 10 0 60079 77400.00000 0 12215223.418 16847237.531 14775271.892 10 0 60079 78300.00000 0 10617477.425 15700320.591 17091464.444 10 0 60079 79200.00000 0 8708038.634 14546588.687 19076210.168 10 0 60079 80100.00000 0 6518579.300 13442376.970 20691028.166 10 0 60079 81000.00000 0 4092030.879 12438358.768 21904598.691 10 0 60079 81900.00000 0 1481054.496 11577401.844 22693366.597 10 0 60079 82800.00000 0 -1253893.425 10892770.212 23041996.311 10 0 60079 83700.00000 0 -4046821.431 10406746.316 22943669.931 10 0 60079 84600.00000 0 -6828696.921 10129730.976 22400222.794 10 0 60079 85500.00000 0 -9530071.548 10059858.632 21422113.755 10 0 60080 0.00000 0 -12083730.316 10183144.105 20028230.367 10 0 60080 900.00000 0 -14427256.842 10474155.062 18245531.204 10 0 60080 1800.00000 0 -16505405.645 10897182.198 16108533.240 10 0 60080 2700.00000 0 -18272187.896 11407858.662 13658650.725 10 0 60080 3600.00000 0 -19692580.594 11955160.887 10943399.142 10 0 60080 4500.00000 0 -20743789.282 12483706.850 8015478.196 10 0 60080 5400.00000 0 -21416011.277 12936254.850 4931751.181 10 0 60080 6300.00000 0 -21712667.321 13256297.020 1752140.244 10 0 60080 7200.00000 0 -21650091.910 13390637.382 -1461540.823 10 0 60080 8100.00000 0 -21256695.452 13291844.511 -4646793.181 10 0 60080 9000.00000 0 -20571633.733 12920473.917 -7741654.809 10 0 60080 9900.00000 0 -19643041.267 12246964.821 -10685912.946 10 0 60080 10800.00000 0 -18525903.613 11253129.725 -13422282.671 10 0 60080 11700.00000 0 -17279659.105 9933172.450 -15897527.835 10 0 60080 12600.00000 0 -15965631.911 8294190.320 -18063501.835 10 0 60080 13500.00000 0 -14644405.297 6356138.140 -19878087.532 10 0 60080 14400.00000 0 -13373246.310 4151254.345 -21306017.850 10 0 60080 15300.00000 0 -12203690.645 1722972.478 -22319561.098 10 0 60080 16200.00000 0 -11179389.363 -875637.197 -22899057.969 10 0 60080 17100.00000 0 -10334307.801 -3583831.535 -23033300.168 10 0 60080 18000.00000 0 -9691351.888 -6335482.344 -22719743.755 10 0 60080 18900.00000 0 -9261478.879 -9061593.420 -21964553.533 10 0 60080 19800.00000 0 -9043329.020 -11692942.475 -20782478.032 10 0 60080 20700.00000 0 -9023392.633 -14162738.484 -19196557.815 10 0 60080 21600.00000 0 -9176704.591 -16409184.435 -17237673.025 10 0 60080 22500.00000 0 -9468035.977 -18377839.487 -14943939.070 10 0 60080 23400.00000 0 -9853531.826 -20023682.782 -12359962.273 10 0 60080 24300.00000 0 -10282725.101 -21312793.807 -9535970.057 10 0 60080 25200.00000 0 -10700841.297 -22223580.148 -6526832.611 10 0 60080 26100.00000 0 -11051295.771 -22747502.334 -3390995.206 10 0 60080 27000.00000 0 -11278277.940 -22889266.663 -189342.109 10 0 60080 27900.00000 0 -11329312.764 -22666479.045 3015985.709 10 0 60080 28800.00000 0 -11157691.053 -22108775.593 6162795.806 10 0 60080 29700.00000 0 -10724665.719 -21256467.504 9190048.971 10 0 60080 30600.00000 0 -10001321.060 -20158758.011 12039039.973 10 0 60080 31500.00000 0 -8970035.977 -18871606.927 14654531.542 10 0 60080 32400.00000 0 -7625479.074 -17455332.754 16985819.966 10 0 60080 33300.00000 0 -5975093.219 -15972053.069 18987712.123 10 0 60080 34200.00000 0 -4039048.464 -14483070.301 20621395.629 10 0 60080 35100.00000 0 -1849664.217 -13046311.993 21855186.000 10 0 60080 36000.00000 0 549676.471 -11713932.053 22665137.039 10 0 60080 36900.00000 0 3106076.658 -10530172.667 23035503.276 10 0 60080 37800.00000 0 5759076.399 -9529575.553 22959045.873 10 0 60080 38700.00000 0 8442925.295 -8735616.687 22437176.277 10 0 60080 39600.00000 0 11089083.845 -8159821.117 21479934.638 10 0 60080 40500.00000 0 13628851.166 -7801394.579 20105802.951 10 0 60080 41400.00000 0 15996011.168 -7647387.227 18341355.792 10 0 60080 42300.00000 0 18129388.049 -7673382.657 16220754.457 10 0 60080 43200.00000 0 19975205.428 -7844683.465 13785093.308 10 0 60080 44100.00000 0 21489151.064 -8117943.681 11081609.944 10 0 60080 45000.00000 0 22638061.012 -8443179.436 8162773.742 10 0 60080 45900.00000 0 23401152.587 -8766073.037 5085269.836 10 0 60080 46800.00000 0 23770754.258 -9030472.887 1908898.000 10 0 60080 47700.00000 0 23752501.500 -9180983.007 -1304592.062 10 0 60080 48600.00000 0 23364990.241 -9165531.791 -4492705.965 10 0 60080 49500.00000 0 22638902.395 -8937810.203 -7593426.355 10 0 60080 50400.00000 0 21615640.507 -8459474.945 -10546426.425 10 0 60080 51300.00000 0 20345529.335 -7702021.991 -13294250.739 10 0 60080 52200.00000 0 18885660.661 -6648249.836 -15783439.569 10 0 60080 53100.00000 0 17297472.704 -5293249.283 -17965574.133 10 0 60080 54000.00000 0 15644166.625 -3644876.675 -19798221.939 10 0 60080 54900.00000 0 13988069.304 -1723689.460 -21245763.639 10 0 60080 55800.00000 0 12388053.605 437654.273 -22280085.320 10 0 60080 56700.00000 0 10897124.551 2795508.022 -22881123.022 10 0 60080 57600.00000 0 9560272.513 5296815.108 -23037249.284 10 0 60080 58500.00000 0 8412683.005 7881087.603 -22745494.666 10 0 60080 59400.00000 0 7478377.371 10482703.957 -22011600.404 10 0 60080 60300.00000 0 6769340.368 13033430.026 -20849901.611 10 0 60080 61200.00000 0 6285170.078 15465058.929 -19283043.579 10 0 60080 62100.00000 0 6013263.528 17712060.221 -17341536.955 10 0 60080 63000.00000 0 5929528.948 19714128.515 -15063160.545 10 0 60080 63900.00000 0 5999593.402 21418525.807 -12492223.450 10 0 60080 64800.00000 0 6180453.767 22782120.429 -9678700.949 10 0 60080 65700.00000 0 6422500.430 23773038.143 -6677260.977 10 0 60080 66600.00000 0 6671827.394 24371857.277 -3546200.316 10 0 60080 67500.00000 0 6872730.559 24572298.648 -346311.327 10 0 60080 68400.00000 0 6970288.016 24381382.272 2860298.628 10 0 60080 69300.00000 0 6912912.877 23819045.358 6011411.824 10 0 60080 70200.00000 0 6654770.460 22917238.467 9045905.415 10 0 60080 71100.00000 0 6157957.486 21718538.543 11904933.831 10 0 60080 72000.00000 0 5394351.024 20274337.548 14533065.522 10 0 60080 72900.00000 0 4347048.938 18642683.037 16879352.323 10 0 60080 73800.00000 0 3011340.715 16885861.219 18898311.199 10 0 60080 74700.00000 0 1395167.216 15067823.530 20550799.972 10 0 60080 75600.00000 0 -480950.849 13251563.916 21804770.770 10 0 60080 76500.00000 0 -2584513.920 11496555.758 22635887.362 10 0 60080 77400.00000 0 -4872150.314 9856354.707 23027995.001 10 0 60080 78300.00000 0 -7291184.125 8376466.598 22973434.131 10 0 60080 79200.00000 0 -9781600.673 7092568.559 22473192.053 10 0 60080 80100.00000 0 -12278329.364 6029156.828 21536889.459 10 0 60080 81000.00000 0 -14713750.565 5198677.097 20182601.638 10 0 60080 81900.00000 0 -17020323.610 4601173.303 18436517.094 10 0 60080 82800.00000 0 -19133227.572 4224469.282 16332439.219 10 0 60080 83700.00000 0 -20992905.558 4044875.537 13911139.692 10 0 60080 84600.00000 0 -22547406.753 4028391.355 11219575.074 10 0 60080 85500.00000 0 -23754428.397 4132351.656 8309980.992 99